Location: ?????????
(54.7630°N, 39.4991°E)
Time: 15:49:12
(UTC+00:00)

Meteor 2-8 Rocket - Pass Details

Date: 14 April 2026
Orbit: 936 x 958 km, 82.5° (Epoch: 17 May)

Event Time Altitude Azimuth Distance (km) Brightness Sun altitude
Exits shadow 19:07:24 17° 196° (SSW) 2,169 6.0 -19.7°
Maximum altitude 19:12:09 80° 282° (WNW) 961 4.5 -20.1°
Drops below altitude 10° 19:18:16 10° 10° (N) 2,664 7.4 -20.5°
Sets 19:20:46 0° 12° (NNE) 3,611 8.2 -20.7°
